Regional Weather Roundup
Issued by NWS

Home | Current Version | Previous Version | Text Only | Print | Product List | Glossary On
Versions: 1 2 3 4 5 6 7 8 9 10 11 12 13 14 15 16 17 18 19 20 21 22 23 24 25 26 27 28 29 30 31 32 33 34 35 36 37 38 39 40 41 42 43 44 45 46 47 48 49 50
000
ASUS43 KTOP 292108
RWRKS

WEATHER ROUNDUP FOR KANSAS
NATIONAL WEATHER SERVICE GOODLAND KS
400 PM CDT FRI JUL 29 2016

NOTE:  "FAIR" INDICATES FEW OR NO CLOUDS BELOW 12,000 FEET WITH NO
SIGNIFICANT WEATHER AND/OR OBSTRUCTIONS TO VISIBILITY.

KSZ001>006-013>018-027>032-041>047-292200-
NORTHWEST KANSAS

CITY           SKY/WX    TMP DP  RH WIND       PRES   REMARKS
GOODLAND       PTSUNNY   71  63  75 SE6       30.13F
HAYS           MOSUNNY   84  61  45 CALM      30.03F
HILL CITY      SUNNY     85  62  46 SE7       30.05F
RUSSELL        MOSUNNY   87  62  43 N7        30.02F
$$

KSZ061>065-074>080-084>089-292200-
SOUTHWEST KANSAS

CITY           SKY/WX    TMP DP  RH WIND       PRES   REMARKS
DODGE CITY     CLOUDY    83  63  50 NW5       30.06F
ELKHART          N/A     85  63  47 SE13        N/A
GARDEN CITY    CLOUDY    80  65  59 CALM      30.07F
GREAT BEND     MOSUNNY   82  64  54 W7        30.02F
LIBERAL        PTSUNNY   81  64  57 S6        30.08F
PRATT          CLOUDY    81  63  53 NW10      30.04S
$$

KSZ066>073-081>083-090>101-292200-
SOUTHEAST KANSAS

CITY           SKY/WX    TMP DP  RH WIND       PRES   REMARKS
CHANUTE        PTSUNNY   86  69  56 N12       29.97F
COFFEYVILLE    MOSUNNY   87  67  51 N12       29.96F
HUTCHINSON     CLOUDY    85  67  54 N6        30.01S
MEDICINE LODGE   N/A     87  60  40 VRB5      30.01S
NEWTON         MOSUNNY   82  68  62 VRB6      30.01F
PARSONS        PTSUNNY   86  71  60 N6        29.97F
WICHITA INTL   MOSUNNY   88  66  48 NW13      29.98F
WICHITA JABRA  PTSUNNY   84  68  58 VRB6      29.99F
WICHITA MCCONL MOSUNNY   85  66  52 N8        29.99F
WINFIELD       MOSUNNY   86  68  54 VRB5      29.99F
$$

KSZ007>012-019>026-033>040-048>060-102>105-292200-
NORTHEAST KANSAS

CITY           SKY/WX    TMP DP  RH WIND       PRES   REMARKS
CONCORDIA      PTSUNNY   81  64  56 NE6       30.02F
EMPORIA        PTSUNNY   82  68  62 NE7       29.98F
LAWRENCE       PTSUNNY   85  66  53 N9        29.98F
MANHATTAN      MOSUNNY   84  68  58 N6        29.99F
MARYSVILLE     MOSUNNY   82  63  51 NE9       30.01F
OLATHE IND     MOSUNNY   84  65  52 N6        29.99F
OLATHE EXE     MOSUNNY   85  64  49 N7        29.98F
SALINA         MOSUNNY   86  66  51 N7        30.00F
TOPEKA BILLARD CLOUDY    83  64  52 NE6       29.99S
TOPEKA FORBES  PTSUNNY   84  66  54 CALM      29.99F
$$




USA.gov is the U.S. government's official web portal to all federal, state and local government web resources and services.